Regional Weather Roundup
Issued by NWS

Home | Current Version | Previous Version | Text Only | Print | Product List | Glossary Off
Versions: 1 2 3 4 5 6 7 8 9 10 11 12 13 14 15 16 17 18 19 20 21 22 23 24 25 26 27 28 29 30 31 32 33 34 35 36 37 38 39 40 41 42 43 44 45 46 47 48 49 50

000
ASUS45 KABQ 031301
RWRNM
WEATHER ROUNDUP FOR NEW MEXICO
NATIONAL WEATHER SERVICE ALBUQUERQUE NM
700 AM MDT SUN MAY 03 2015

NOTE: "FAIR" MEANS FEW OR NO CLOUDS BELOW 12,000 FEET AGL WITH NO
       SIGNIFICANT WEATHER OR OBSTRUCTIONS TO VISION.

      THIS PRODUCT IS RELEASED AS TWO VERSIONS.  ONE VERSION NEAR
      THE TOP OF THE HOUR CONTAINING PRELIMINARY DATA FROM ALBUQUERQUE
      AND OTHER STATIONS.  A FINAL VERSION WITH ADDITIONAL DATA IS
      ISSUED ABOUT 10 MINUTES AFTER THE HOUR.

NMZ501-503-504-510>518-031400-
NORTHWEST PLATEAU/NORTHCENTRAL MOUNTAINS

CITY           SKY/WX    TMP DP  RH WIND       PRES   REMARKS
FARMINGTON     CLOUDY    55  35  47 SE7       30.04R
LOS ALAMOS     PTCLDY    51  31  46 CALM      30.13R
SANTA FE       PTCLDY    44  33  65 N9        30.08S
TAOS           PTCLDY    37  28  70 CALM      30.13R
ANGEL FIRE     FAIR      31  29  94 SE3       30.19R

$$
NMZ402-403-502-505>509-031400-
WESTCENTRAL MOUNTAINS/SOUTHWEST MOUNTAINS

CITY           SKY/WX    TMP DP  RH WIND       PRES   REMARKS
GALLUP         PTCLDY    39  37  92 CALM      30.10R
GRANTS         PTCLDY    36  34  90 NW5       30.12S WCI  32
SILVER CITY      N/A     50  34  53 N10       30.07R

$$
NMZ407-409-411-412-031400-
SOUTHERN DESERTS

CITY           SKY/WX    TMP DP  RH WIND       PRES   REMARKS
LORDSBURG      FAIR      54  36  50 W5        30.00R
DEMING         CLEAR     53  36  52 W3        30.01R
LAS CRUCES     CLEAR     57  36  44 NW6       30.00R
HOLLOMAN AFB   PTCLDY    60  34  37 NE9       29.95R
ALAMOGORDO     PTCLDY    64  36  34 N7        29.96S
T OR C         CLEAR     58  34  40 W7        30.01R

$$
NMZ519>523-031400-
CENTRAL VALLEYS/CENTRAL HIGHLANDS

CITY           SKY/WX    TMP DP  RH WIND       PRES   REMARKS
ALBUQUERQUE    MOCLDY    53  35  50 E6        30.05S
DOUBLE EAGLE   MOCLDY    46  37  71 VRB7      30.08R
MORIARTY ARPT  FAIR      39  33  77 CALM      30.10R
CLINES CORNERS PTCLDY    48  32  53 W12       30.10R
BELEN          PTSUNNY   53  39  60 NW7       30.04R
SOCORRO        FAIR      58  36  43 S3        30.02S

$$
NMZ524>526-539-540-031400-
SOUTHCENTRAL MOUNTAINS

CITY           SKY/WX    TMP DP  RH WIND       PRES   REMARKS
RUIDOSO        NOT AVBL

$$
NMZ527>531-031400-
NORTHEAST HIGHLANDS/NORTHEAST PLAINS

CITY           SKY/WX    TMP DP  RH WIND       PRES   REMARKS
LAS VEGAS      MOCLDY    48  33  56 NW3       30.09R
RATON          SUNNY     42  33  70 NE6       30.05R
CLAYTON        MOSUNNY   60  37  42 W12       29.96S

$$
NMZ532>537-031400-
EASTCENTRAL PLAINS

CITY           SKY/WX    TMP DP  RH WIND       PRES   REMARKS
TUCUMCARI      SUNNY     58  44  60 W3        29.95R
CANNON AFB     SUNNY     58  46  64 W13       29.97R
CLOVIS AIRPORT SUNNY     54  45  71 W6        29.97R

$$
NMZ028-029-538-031400-
SOUTHEAST PLAINS

CITY           SKY/WX    TMP DP  RH WIND       PRES   REMARKS
ROSWELL        MOCLDY    54  45  71 CALM      29.95R
CARLSBAD       PTCLDY    55  45  68 CALM      29.93R
HOBBS          MOSUNNY   50  45  81 CALM      29.99R


$$



USA.gov is the U.S. government's official web portal to all federal, state and local government web resources and services.